Weather History for Apalachicola, FL

Change the Weather History Date:

Monday, December 10, 2012

  Actual Average Record
Temperature  
Mean Temperature 68 °F 56 °F  
Max Temperature 76 °F 67 °F 78 °F (1980)
Min Temperature 59 °F 46 °F 28 °F (1995)
Degree Days  
Heating Degree Days 0    
Month to date heating degree days 16  
Since 1 July heating degree days 219  
Cooling Degree Days 3    
Month to date cooling degree days 7  
Year to date cooling degree days 2765  
Growing Degree Days 17 (Base 50)    
Moisture  
Dew Point 66 °F    
Average Humidity 88    
Maximum Humidity 97    
Minimum Humidity 79    
Precipitation  
Precipitation 0.00 in 0.11 in 3.23 in (1967)
Month to date precipitation T 1.13  
Year to date precipitation 55.63 55.52  
Sea Level Pressure  
Sea Level Pressure 29.89 in    
Wind  
Wind Speed 7 mph (South)    
Max Wind Speed 14 mph    
Max Gust Speed 18 mph    
Visibility 9 miles    
Events      
T = Trace of Precipitation, MM = Missing Value Source: NWS Daily Summary

Daily Weather History Graph

Daily Weather History Graph

Search for Another Location

Airport:

Trip Planner

Search our weather history database for the weather conditions in past years. The results will help you decide how hot, cold, wet, or windy it might be!

Date:

Astronomy

Dec. 10, 2012 Rise Set
Actual Time 7:24 AM EST 5:41 PM EST
Civil Twilight 6:58 AM EST 6:07 PM EST
Nautical Twilight 6:28 AM EST 6:37 PM EST
Astronomical Twilight 5:59 AM EST 7:06 PM EST
Moon 4:15 AM EST (12/10) 3:23 PM EST (12/10)
Length of Visible Light 11h 09m
Length of Day
10h 16m
Waning Crescent, 10% of the Moon is Illuminated
Dec 10
Waning Crescent
Dec 13
New
Dec 20
First Quarter
Dec 28
Full
Jan 4
Last Quarter

Hourly Weather History & Observations

Time (EST) Temp. Dew Point Humidity Pressure Visibility Wind Dir Wind Speed Gust Speed Precip Events Conditions
12:53 AM 66.0 °F 64.0 °F 93% 29.99 in 10.0 mi South 6.9 mph - N/A   Clear
1:53 AM 66.9 °F 64.0 °F 90% 29.97 in 10.0 mi South 5.8 mph - N/A   Clear
2:53 AM 64.9 °F 63.0 °F 93% 29.97 in 10.0 mi South 5.8 mph - N/A   Clear
3:53 AM 64.9 °F 63.0 °F 93% 29.96 in 10.0 mi South 4.6 mph - N/A   Clear
4:53 AM 66.0 °F 63.0 °F 90% 29.95 in 10.0 mi Calm Calm - N/A   Clear
5:53 AM 59.0 °F 55.9 °F 90% 29.94 in 10.0 mi Calm Calm - N/A   Clear
6:01 AM 60.8 °F 57.2 °F 88% 29.94 in 1.8 mi South 4.6 mph - N/A   Clear
6:13 AM 62.6 °F 60.8 °F 94% 29.94 in 4.0 mi South 4.6 mph - N/A   Clear
6:53 AM 61.0 °F 59.0 °F 93% 29.93 in 4.0 mi South 4.6 mph - N/A   Clear
7:53 AM 64.9 °F 63.0 °F 93% 29.92 in 10.0 mi SSE 6.9 mph - N/A   Partly Cloudy
8:53 AM 70.0 °F 66.0 °F 87% 29.91 in 10.0 mi SSE 9.2 mph - N/A   Scattered Clouds
9:12 AM 71.6 °F 66.2 °F 83% 29.91 in 10.0 mi SSE 10.4 mph - N/A   Mostly Cloudy
9:19 AM 71.6 °F 66.2 °F 83% 29.91 in 10.0 mi SSE 10.4 mph - N/A   Partly Cloudy
9:53 AM 72.0 °F 66.9 °F 84% 29.92 in 10.0 mi SSE 12.7 mph - N/A   Mostly Cloudy
10:53 AM 72.0 °F 66.9 °F 84% 29.93 in 10.0 mi SSE 10.4 mph - N/A   Overcast
11:11 AM 73.4 °F 66.2 °F 78% 29.93 in 10.0 mi South 10.4 mph - N/A   Overcast
11:32 AM 73.4 °F 66.2 °F 78% 29.92 in 10.0 mi South 9.2 mph - N/A   Overcast
11:53 AM 73.0 °F 66.0 °F 79% 29.91 in 10.0 mi SSE 10.4 mph - N/A   Overcast
12:53 PM 73.0 °F 66.0 °F 79% 29.89 in 10.0 mi South 9.2 mph - N/A   Overcast
1:19 PM 73.4 °F 66.2 °F 78% 29.88 in 10.0 mi South 5.8 mph - N/A   Overcast
1:51 PM 73.4 °F 68.0 °F 83% 29.86 in 10.0 mi South 5.8 mph - N/A   Overcast
1:53 PM 73.9 °F 68.0 °F 82% 29.86 in 10.0 mi South 5.8 mph - N/A   Overcast
2:25 PM 75.2 °F 69.8 °F 83% 29.83 in 10.0 mi SSW 6.9 mph - N/A   Overcast
2:53 PM 73.9 °F 68.0 °F 82% 29.82 in 10.0 mi South 5.8 mph - N/A   Overcast
3:35 PM 75.2 °F 69.8 °F 83% 29.80 in 10.0 mi SSW 5.8 mph - N/A   Overcast
3:46 PM 75.2 °F 69.8 °F 83% 29.81 in 10.0 mi SSW 6.9 mph - N/A   Overcast
3:53 PM 75.0 °F 70.0 °F 84% 29.81 in 10.0 mi SW 6.9 mph - N/A   Overcast
4:10 PM 75.2 °F 69.8 °F 83% 29.81 in 10.0 mi SW 8.1 mph - N/A   Overcast
4:41 PM 75.2 °F 69.8 °F 83% 29.81 in 10.0 mi SW 10.4 mph - N/A   Mostly Cloudy
4:53 PM 75.0 °F 70.0 °F 84% 29.81 in 10.0 mi SW 9.2 mph - N/A   Scattered Clouds
5:53 PM 73.9 °F 69.1 °F 85% 29.83 in 10.0 mi WSW 13.8 mph - N/A   Partly Cloudy
6:53 PM 73.0 °F 68.0 °F 84% 29.82 in 10.0 mi West 5.8 mph - N/A   Partly Cloudy
7:53 PM 71.1 °F 68.0 °F 90% 29.85 in 9.0 mi SW 3.5 mph - N/A   Clear
8:53 PM 71.1 °F 68.0 °F 90% 29.86 in 9.0 mi SSW 8.1 mph - N/A   Clear
9:53 PM 71.1 °F 68.0 °F 90% 29.87 in 9.0 mi WSW 6.9 mph - N/A   Clear
10:53 PM 71.1 °F 68.0 °F 90% 29.87 in 9.0 mi WSW 6.9 mph - N/A   Clear
11:53 PM 71.1 °F 68.0 °F 90% 29.87 in 8.0 mi SW 5.8 mph - N/A   Clear